Simultaneous Nadir Overpasses (SNOs) Predictions

Prediction of SNOs between METOP-A and TERRA Satellite Orbit:

Table of predicted SNOs for the next 14.0 days since TLE Epoch: 3/20/2012
Index Date (METOP-A) Time (METOP-A) METOP-A Lat,Lon Date (TERRA) Time (TERRA) TERRA Lat,Lon Distance(km) Time Diff (sec)
1 03/22/2012 16:08:37 -81.30, 165.11 03/22/2012 16:09:10 -81.30, 164.93 3.04 33
2 03/22/2012 16:59:18 81.30, -27.71 03/22/2012 16:58:37 81.29, -27.66 1.15 41
3 03/25/2012 11:43:00 -81.29,-128.84 03/25/2012 11:43:23 -81.30,-128.69 2.63 23
4 03/25/2012 12:33:39 81.30, 39.12 03/25/2012 12:32:49 81.31, 39.08 0.86 50
5 03/28/2012 07:17:21 -81.29, -62.40 03/28/2012 07:17:35 -81.29, -62.42 0.64 14
6 03/28/2012 08:08:01 81.30, 105.17 03/28/2012 08:07:01 81.29, 105.32 2.51 60
7 03/31/2012 02:51:43
